This demonstration page uses our WeatherBlox Daily Observations layout. Learn more.

Left ArrowRight Arrow

53.62937, 11.41316

Hourly Observations for February 15, 2018

Temp ( °F °C ) Dew Point ( °F °C ) Humidity (%) Winds ( mph kmh ) Pressure ( in mb ) Visibility ( mi km ) Precip ( " mm )
5:20 am 05:20 Partly Cloudy with Mist and Fog 27 -3 25 -4 93 93 ESE 10 17 30.12 1020 3 4 N/A
5:50 am 05:50 Mostly Clear with Mist and Fog 27 -3 25 -4 93 93 ESE 12 19 30.12 1020 3 5 N/A
6:20 am 06:20 Mostly Clear 28 -2 25 -4 86 86 ESE 14 22 30.12 1020 4 6 N/A
6:50 am 06:50 Mostly Clear 27 -3 25 -4 93 93 ESE 15 24 30.09 1019 4 6 N/A
7:20 am 07:20 Mostly Clear 28 -2 25 -4 86 86 ESE 14 22 30.09 1019 4 7 N/A
7:50 am 07:50 Mostly Sunny 28 -2 25 -4 86 86 ESE 15 24 30.09 1019 4 7 N/A
8:20 am 08:20 Mostly Sunny 28 -2 25 -4 86 86 ESE 14 22 30.09 1019 4 7 N/A
8:50 am 08:50 Mostly Sunny 28 -2 25 -4 86 86 ESE 14 22 30.09 1019 4 7 N/A
9:20 am 09:20 Mostly Sunny 28 -2 25 -4 86 86 ESE 13 20 30.09 1019 4 7 N/A
9:50 am 09:50 Mostly Sunny 30 -1 25 -4 80 80 ESE 15 24 30.06 1018 4 7 N/A
10:20 am 10:20 Mostly Sunny 30 -1 25 -4 80 80 ESE 16 26 30.06 1018 6 9 N/A
10:50 am 10:50 Mostly Sunny 32 0 25 -4 75 75 ESE 16 26 30.03 1017 7 11 N/A
11:20 am 11:20 Mostly Sunny 32 0 25 -4 75 75 ESE 17 28 30.03 1017 7 11 N/A
11:50 am 11:50 Mostly Sunny 32 0 25 -4 75 75 ESE 14 22 30.03 1017 7 11 N/A
12:20 pm 12:20 Mostly Sunny 34 1 25 -4 70 70 ESE 15 24 30.00 1016 7 11 N/A
12:50 pm 12:50 Mostly Sunny 34 1 25 -4 70 70 ESE 16 26 29.97 1015 7 11 N/A
1:20 pm 13:20 Mostly Sunny 34 1 25 -4 70 70 SE 17 28 29.97 1015 7 11 N/A
1:50 pm 13:50 Mostly Sunny 34 1 25 -4 70 70 SE 17 28 29.97 1015 7 11 N/A
2:20 pm 14:20 Mostly Sunny 36 2 25 -4 65 65 SE 17 28 29.94 1014 7 11 N/A
2:50 pm 14:50 Mostly Sunny 36 2 25 -4 65 65 SE 16 26 29.94 1014 7 11 N/A
3:20 pm 15:20 Mostly Sunny 36 2 25 -4 65 65 SE 15 24 29.94 1014 7 11 N/A
3:50 pm 15:50 Mostly Sunny 36 2 25 -4 65 65 SE 16 26 29.94 1014 7 11 N/A
4:20 pm 16:20 Cloudy with Light Rain 36 2 25 -4 65 65 SSE 15 24 29.94 1014 30 48 N/A
4:50 pm 16:50 Cloudy 34 1 27 -3 75 75 SSE 17 28 29.94 1014 30 48 N/A
5:20 pm 17:20 Cloudy with Light Rain 34 1 27 -3 75 75 SSE 16 26 29.94 1014 30 48 N/A
5:50 pm 17:50 Cloudy with Light Snow 32 0 28 -2 87 87 SSE 16 26 29.94 1014 4 6 N/A

Powered by AerisWeather